| time (UTC) | temp F | wind direction | speed knots | gust knots | rain 1hr in | rain 24hr in | rain mn in | humidity % | barometer mb |
| 20260504081514 | 63 | 236 | 0.0 | 0.0 | 0.00 | 0.00 | 0.00 | 76 | 1014.7 |
| 20260504060104 | 65 | 236 | 0.0 | 0.0 | 0.00 | 0.00 | 0.00 | 72 | 1016.3 |
| 20260504044600 | 64 | 236 | 0.0 | 0.0 | 0.00 | 0.00 | 0.00 | 74 | 1016.8 |
| 20260504043050 | 64 | 236 | 0.0 | 0.0 | 0.00 | 0.00 | 0.00 | 73 | 1016.9 |
| 20260504041550 | 64 | 236 | 0.0 | 0.0 | 0.00 | 0.00 | 0.00 | 72 | 1016.8 |
| 20260504040049 | 65 | 236 | 0.0 | 0.0 | 0.00 | 0.00 | 0.00 | 70 | 1016.8 |
| 20260504034554 | 66 | 236 | 0.0 | 0.0 | 0.00 | 0.00 | 0.00 | 68 | 1016.9 |
| 20260504033055 | 67 | 236 | 0.0 | 0.0 | 0.00 | 0.00 | 0.00 | 67 | 1016.8 |
| 20260504031549 | 67 | 236 | 0.0 | 0.0 | 0.00 | 0.00 | 0.00 | 66 | 1016.7 |
| 20260504030047 | 68 | 236 | 0.0 | 0.0 | 0.00 | 0.00 | 0.00 | 68 | 1016.7 |
| 20260504024548 | 68 | 236 | 0.0 | 0.0 | 0.00 | 0.00 | 0.00 | 65 | 1016.8 |
| 20260504023047 | 68 | 236 | 0.0 | 0.0 | 0.00 | 0.00 | 0.00 | 65 | 1016.7 |
| 20260504021546 | 69 | 236 | 0.0 | 0.0 | 0.00 | 0.00 | 0.00 | 64 | 1016.7 |
| 20260504020045 | 69 | 236 | 0.0 | 0.0 | 0.00 | 0.00 | 0.00 | 62 | 1016.7 |
| 20260504014548 | 70 | 236 | 0.0 | 0.0 | 0.00 | 0.00 | 0.00 | 61 | 1016.6 |
| 20260504013049 | 70 | 236 | 0.0 | 0.0 | 0.00 | 0.00 | 0.00 | 59 | 1016.8 |
| 20260504011548 | 71 | 95 | 0.0 | 0.0 | 0.00 | 0.00 | 0.00 | 58 | 1016.5 |
| 20260504010053 | 71 | 86 | 0.0 | 0.0 | 0.00 | 0.00 | 0.00 | 57 | 1016.5 |
| 20260504004544 | 72 | 81 | 0.0 | 0.9 | 0.00 | 0.00 | 0.00 | 55 | 1016.5 |
| 20260504003043 | 73 | 69 | 0.0 | 0.9 | 0.00 | 0.00 | 0.00 | 55 | 1016.4 |
| 20260504001601 | 73 | 117 | 0.0 | 1.7 | 0.00 | 0.00 | 0.00 | 53 | 1016.5 |
| 20260504000043 | 74 | 108 | 0.0 | 0.9 | 0.00 | 0.00 | 0.00 | 51 | 1016.4 |
| 20260503234539 | 75 | 121 | 0.0 | 1.7 | 0.00 | 0.00 | 0.00 | 49 | 1016.7 |
| 20260503233038 | 75 | 198 | 0.0 | 1.7 | 0.00 | 0.00 | 0.00 | 50 | 1016.8 |
| 20260503231538 | 75 | 115 | 0.0 | 1.7 | 0.00 | 0.00 | 0.00 | 49 | 1016.8 |
| 20260503230036 | 76 | 115 | 0.0 | 2.6 | 0.00 | 0.00 | 0.00 | 47 | 1016.9 |
| 20260503224537 | 76 | 163 | 0.0 | 1.7 | 0.00 | 0.00 | 0.00 | 48 | 1017.0 |
| 20260503223034 | 77 | 151 | 0.0 | 1.7 | 0.00 | 0.00 | 0.00 | 46 | 1017.3 |
| 20260503221540 | 77 | 200 | 0.0 | 1.7 | 0.00 | 0.00 | 0.00 | 44 | 1017.1 |
| 20260503220040 | 77 | 171 | 0.0 | 1.7 | 0.00 | 0.00 | 0.00 | 46 | 1017.2 |
| 20260503214530 | 78 | 143 | 0.0 | 1.7 | 0.00 | 0.00 | 0.00 | 45 | 1017.6 |
| 20260503213037 | 78 | 146 | 0.0 | 1.7 | 0.00 | 0.00 | 0.00 | 43 | 1017.7 |
| 20260503211528 | 78 | 274 | 1.7 | 3.5 | 0.00 | 0.00 | 0.00 | 44 | 1017.8 |
| 20260503210026 | 78 | 160 | 0.0 | 0.9 | 0.00 | 0.00 | 0.00 | 44 | 1018.1 |
| 20260503204526 | 77 | 79 | 0.0 | 3.5 | 0.00 | 0.00 | 0.00 | 43 | 1018.2 |
| 20260503203022 | 77 | 94 | 1.7 | 8.7 | 0.00 | 0.00 | 0.00 | 42 | 1018.5 |
| 20260503201528 | 77 | 322 | 0.0 | 7.8 | 0.00 | 0.00 | 0.00 | 42 | 1018.7 |
| 20260503200029 | 78 | 81 | 0.0 | 6.1 | 0.00 | 0.00 | 0.00 | 46 | 1018.8 |
| 20260503194526 | 78 | 129 | 0.9 | 8.7 | 0.00 | 0.00 | 0.00 | 44 | 1019.0 |
| 20260503193019 | 77 | 127 | 0.9 | 5.2 | 0.00 | 0.00 | 0.00 | 42 | 1019.4 |
| 20260503191521 | 77 | 106 | 0.0 | 3.5 | 0.00 | 0.00 | 0.00 | 44 | 1019.5 |
| 20260503190021 | 77 | 90 | 2.6 | 9.6 | 0.00 | 0.00 | 0.00 | 46 | 1019.7 |
| 20260503184522 | 77 | 324 | 2.6 | 6.1 | 0.00 | 0.00 | 0.00 | 41 | 1019.9 |
| 20260503183024 | 77 | 102 | 0.0 | 7.8 | 0.00 | 0.00 | 0.00 | 37 | 1020.1 |
| 20260503181526 | 76 | 61 | 0.9 | 10.4 | 0.00 | 0.00 | 0.00 | 36 | 1020.4 |
| 20260503180013 | 77 | 71 | 4.3 | 10.4 | 0.00 | 0.00 | 0.00 | 38 | 1020.6 |
| 20260503174508 | 76 | 79 | 7.0 | 12.2 | 0.00 | 0.00 | 0.00 | 39 | 1020.8 |
| 20260503173028 | 76 | 115 | 0.0 | 7.8 | 0.00 | 0.00 | 0.00 | 38 | 1021.1 |
| 20260503171509 | 76 | 85 | 0.0 | 11.3 | 0.00 | 0.00 | 0.00 | 39 | 1021.1 |